Regional Weather Roundup
Issued by NWS Cleveland, OH

Home | Current Version | Previous Version | Graphics & Text | Print | Product List | Glossary On
Versions: 1 2 3 4 5 6 7 8 9 10 11 12 13 14 15 16 17 18 19 20 21 22 23 24 25 26 27 28 29 30 31 32 33 34 35 36 37 38 39 40 41 42 43 44 45 46 47 48 49 50
034
ASUS41 KCLE 250612
RWRCLE
OHIO REGIONAL WEATHER ROUNDUP
NATIONAL WEATHER SERVICE WILMINGTON, OH
100 AM EST SAT FEB 25 2017

NOTE: "FAIR" INDICATES FEW OR NO CLOUDS BELOW 12,000 FEET WITH NO
SIGNIFICANT WEATHER AND/OR OBSTRUCTIONS TO VISIBILITY.

OHZ001>008-015>018-024>027-034-035-043-044-250700-
   NORTHWEST OHIO

CITY           SKY/WX    TMP DP  RH WIND       PRES   REMARKS
DEFIANCE       CLOUDY    44  38  79 W12G22    29.56R
FINDLAY        MOCLDY    49  42  77 W18G24    29.57R
TOLEDO EXPRESS CLOUDY    46  43  89 W23G31    29.53R
TOLEDO EXEC    CLOUDY    49  45  86 W24       29.54R
LIMA           CLOUDY    45  41  86 W22       29.59R
$$

OHZ009>014-019>023-028>033-038-089-250700-
   NORTHEAST OHIO

CITY           SKY/WX    TMP DP  RH WIND       PRES   REMARKS
CLE-HOPKINS    RAIN      60  54  80 SW10      29.53R
CLE-LAKEFRONT  LGT RAIN  60  54  80 S17G25    29.51R
CUY CO. ARPT   NOT AVBL
LORAIN-ELYRIA  LGT RAIN  56  51  84 W13G30    29.53R
ASHTABULA      RAIN      53  52  96 S6        29.57R FOG
AKRON-CANTON   TSTM      58  53  84 SW10      29.54F
WOOSTER        RAIN      57  54  89 SW10      29.54F
MANSFIELD      CLOUDY    54  53  97 W9G18     29.55R
YOUNGSTOWN     TSTM      62  50  64 W21G29    29.60R
$$

OHZ042-051>053-060>062-070>072-077>081-250700-
  SOUTHWEST OHIO

CITY           SKY/WX    TMP DP  RH WIND       PRES   REMARKS
CINC-COVINGTON MOCLDY    50  42  74 NW13      29.64R
CINC-LUNKEN    MOCLDY    52  40  63 W14       29.65R
HAMILTON       MOCLDY    51  43  74 W20G26    29.65R
DAYTON         CLOUDY    48  43  82 NW14      29.62R
WRIGHT-PAT AFB CLOUDY    51  46  82 W9        29.62R
DAYTON GENERAL CLOUDY    51  42  71 W7        29.62R
WILMINGTON     CLOUDY    52  44  74 W16       29.60R
$$

OHZ036-037-039>041-045>050-054>059-063>069-073>076-082>088-250700-
  CENTRAL AND SOUTHEAST OHIO

CITY           SKY/WX    TMP DP  RH WIND       PRES   REMARKS
COLUMBUS       RAIN      56  52  86 NW14      29.56S FOG
OSU AIRPORT    LGT RAIN  54  51  90 W12       29.57R
BOLTON FIELD   LGT RAIN  53  49  85 W9        29.59R
RICKENBACK AFB LGT RAIN  55  54  97 NW15G39   29.57R
NEWARK         LGT RAIN  57  54  89 SW5       29.53F
MARION         MOCLDY    54  46  74 W15G22    29.56F
LANCASTER      LGT RAIN  59  57  93 SW7       29.56F
ZANESVILLE     LGT RAIN  59  52  77 W14       29.60R
NEW PHILLY     LGT RAIN  58  53  84 SW5       29.57R
$$




USA.gov is the U.S. government's official web portal to all federal, state and local government web resources and services.